Wind_Speed
2 3 4 4 6 7 8 10 11 11 11 14 18 22 21 19 19 19 19 20 21 22 23 25 26 28 30 33 35 36 38 40 42 43 43 44 43 43 44 43 43 42 42 42
5 10 7 3 6 8 9 12 14 17 17 16 18 18 15 14 14 16 17 18 19 20 22 25 27 29 31 33 35 36 37 39 41 42 42 43 43 44 45 45 44 43 43 43
10 8 6 4 6 8 11 14 15 15 16 14 14 15 14 11 11 13 16 18 19 21 23 25 26 28 30 32 33 35 36 38 40 41 42 42 43 43 44 44 44 43 43 43
9 7 6 7 9 8 12 13 13 13 14 15 16 19 17 13 12 13 15 18 20 22 23 25 27 28 30 32 33 35 36 38 39 41 42 43 43 44 44 44 44 43 43 43
5 6 6 7 9 8 10 11 12 14 16 20 21 21 15 11 14 15 18 21 22 23 24 25 27 28 30 32 34 35 36 38 39 40 42 43 44 44 44 44 44 44 44 44
1 3 6 6 6 7 9 10 13 18 19 19 17 14 13 13 19 20 22 23 23 24 25 26 28 30 31 33 35 36 37 38 39 40 41 42 43 43 43 44 44 44 44 44
0 3 3 7 6 7 7 10 16 21 21 18 14 9 8 18 22 24 24 25 25 26 27 28 30 31 33 35 36 37 38 39 40 41 42 42 43 43 42 42 42 43 43 43
8 7 7 9 9 8 7 9 14 17 20 20 15 9 12 19 21 22 23 24 25 27 29 30 32 34 35 36 37 38 39 39 40 41 41 42 42 42 42 43 43 43 43 43
8 7 10 11 9 8 8 8 11 12 12 14 16 16 17 19 20 21 23 24 26 28 30 32 34 36 37 38 39 40 41 41 41 41 41 41 42 42 42 43 43 44 44 44
8 7 6 10 10 10 10 9 8 6 8 8 13 18 20 21 22 22 24 26 28 30 32 34 36 37 38 39 40 41 42 42 41 41 41 41 42 42 42 42 42 43 43 45
8 6 4 8 12 12 10 10 10 8 7 6 10 20 21 22 23 24 25 28 29 31 32 34 36 38 39 41 41 42 43 42 42 42 41 41 42 42 42 42 42 43 44 46
8 6 4 7 10 9 9 10 10 9 9 8 9 21 23 23 23 25 27 28 30 31 33 35 37 39 41 42 43 43 44 43 43 43 42 42 42 42 42 43 43 44 45 46
8 7 6 10 11 6 10 12 11 10 10 9 10 20 25 27 26 27 29 30 31 33 35 37 39 41 42 43 43 44 44 44 44 43 43 42 42 42 43 43 44 45 46 47
9 8 6 8 10 10 12 14 14 13 11 13 15 20 25 27 27 28 29 31 32 34 37 39 41 43 44 44 45 45 45 44 44 44 43 43 43 43 43 44 45 46 47 48
9 8 8 9 10 12 13 14 15 15 15 16 18 21 25 26 27 29 30 32 34 36 39 41 43 44 45 45 45 45 45 45 44 44 43 43 43 44 44 44 45 46 47 47
11 10 10 9 10 13 13 15 17 18 18 18 20 23 26 27 29 29 30 33 35 37 40 42 44 45 45 45 46 46 46 45 44 44 43 43 43 44 44 45 46 46 46 46
13 12 10 8 8 11 14 16 19 20 20 22 24 25 27 28 29 29 30 33 35 38 40 42 44 46 46 46 46 47 46 45 44 44 43 44 43 43 44 45 45 45 45 44
12 12 12 10 8 10 14 18 21 22 22 23 24 26 28 29 31 31 31 34 36 39 42 44 45 46 47 47 47 47 46 45 44 44 43 44 43 44 44 45 44 44 43 42
16 14 14 13 10 11 16 22 21 22 24 22 23 25 26 28 32 34 34 37 39 42 43 44 46 47 47 47 47 47 46 45 44 43 43 43 43 44 44 44 43 42 41 40
19 19 17 15 14 13 17 21 21 24 27 24 25 26 27 29 30 34 36 38 40 42 43 44 45 47 47 47 47 47 46 45 44 43 43 43 44 44 43 43 42 40 39 39
23 21 19 19 19 18 24 23 24 26 27 27 28 28 29 30 31 33 35 38 41 43 43 44 45 47 48 48 47 47 46 44 43 43 43 43 44 44 42 41 40 39 38 37
19 19 20 21 20 23 27 27 27 26 26 27 27 28 28 29 31 34 37 39 42 43 43 44 45 47 48 48 47 46 45 44 43 43 43 43 43 43 41 40 39 37 36 35
19 20 21 21 23 27 28 28 28 27 26 26 27 27 28 30 32 35 38 40 42 43 43 43 45 46 48 48 48 47 45 44 42 42 42 42 42 41 40 39 37 35 34 32
21 26 25 23 23 26 27 28 28 27 26 26 27 27 29 31 34 36 38 40 42 42 42 43 44 46 47 48 48 47 45 43 42 41 41 41 41 40 39 38 36 35 33 31
22 25 27 26 26 26 26 27 27 27 27 27 27 28 30 33 35 37 39 40 41 41 42 43 44 46 47 48 48 47 45 43 41 40 40 40 40 40 38 37 36 35 32 31
24 25 26 26 27 27 27 27 27 27 27 27 28 30 33 35 37 38 40 40 41 41 42 43 44 45 47 48 47 46 45 43 41 40 39 39 39 39 38 37 35 34 32 30
Wind_Direction
21 292 267 247 234 278 301 307 298 280 278 283 282 284 285 285 285 287 287 286 284 282 281 282 282 282 282 283 284 284 285 286 287 287 287 288 288 289 288 288 288 287 285 284
284 268 255 268 288 274 266 265 267 273 277 281 280 282 284 285 288 293 295 293 290 287 285 284 285 286 286 286 287 287 288 289 289 289 289 289 289 289 289 289 288 287 285 283
299 308 301 305 274 256 251 254 261 274 286 283 280 280 284 287 293 299 301 300 297 295 294 292 292 293 292 292 292 293 293 293 293 292 291 291 291 290 290 289 288 286 284 283
292 311 307 290 273 262 265 258 261 272 282 285 275 270 271 296 299 305 312 312 309 306 303 302 301 300 300 300 299 298 298 297 296 295 294 294 294 293 293 292 290 289 287 285
285 312 315 299 293 282 288 285 273 272 271 272 266 268 279 306 320 324 324 320 316 313 312 311 310 309 308 307 306 305 304 302 300 298 298 297 297 297 296 294 293 291 289 287
343 333 327 315 301 295 297 298 290 283 278 277 282 296 306 339 334 329 328 324 322 321 320 319 317 316 315 313 312 311 310 308 305 303 301 300 299 298 297 295 294 293 291 288
306 276 305 319 309 291 295 303 304 314 324 336 334 326 330 339 335 330 326 325 325 324 323 322 321 320 318 317 316 315 314 312 309 306 304 302 301 299 297 296 294 293 292 290
3 353 333 318 305 299 304 307 313 325 330 331 334 333 337 331 329 325 323 324 324 324 325 325 324 323 322 321 319 317 316 314 312 309 306 304 302 300 298 297 295 293 292 290
339 334 323 321 314 312 309 302 308 319 328 331 333 327 324 326 324 324 324 325 325 326 326 326 326 326 325 323 321 319 317 316 313 310 307 304 302 300 298 296 294 292 290 288
317 320 317 321 328 324 323 314 308 310 319 335 329 313 314 319 320 322 324 325 326 326 327 327 328 327 326 324 322 320 318 316 314 312 308 305 303 300 298 296 293 291 289 287
309 318 318 317 320 318 316 312 312 311 299 301 312 300 309 312 317 321 323 324 326 326 327 327 327 327 326 325 323 321 319 317 315 313 310 307 304 303 300 298 296 294 291 288
313 315 290 276 288 309 313 313 318 325 316 318 314 299 308 314 320 322 323 324 325 326 328 328 328 328 327 325 323 322 320 319 317 315 313 310 308 305 303 300 299 297 295 291
315 309 296 297 288 321 327 320 319 312 311 307 303 296 308 313 321 323 322 323 325 327 328 329 329 328 327 326 324 323 322 320 319 317 314 312 309 307 305 303 301 299 297 295
311 305 287 299 312 313 307 310 310 308 302 293 290 293 301 311 319 320 322 323 325 327 329 330 330 330 329 327 326 325 323 322 320 318 316 314 312 311 309 307 305 303 301 299
308 300 290 286 287 288 294 299 301 302 302 302 302 305 306 317 320 322 324 325 327 329 330 331 331 331 330 329 328 327 326 324 322 321 319 317 315 313 312 311 309 308 306 303
308 300 295 290 292 296 302 302 301 305 307 307 309 308 312 320 321 324 326 327 329 330 331 331 332 331 331 331 330 328 327 326 325 323 321 319 318 317 316 315 313 312 310 308
308 310 304 289 281 295 304 297 300 305 307 309 311 311 316 320 321 325 328 327 329 330 332 333 333 333 333 332 332 331 330 328 327 325 324 323 321 320 319 319 317 316 315 313
305 308 307 299 289 299 300 297 302 306 306 309 312 313 318 321 322 326 329 328 330 333 335 335 335 335 335 334 333 333 331 330 329 328 326 325 324 323 323 323 321 320 319 318
313 314 312 308 302 296 294 298 303 306 307 312 312 313 317 320 322 326 330 332 334 335 335 336 336 336 337 336 335 334 333 332 331 330 329 328 326 326 326 326 324 323 323 321
302 309 310 311 311 307 295 294 306 307 307 316 314 317 320 322 324 326 330 332 333 334 335 336 337 338 338 338 337 336 335 333 332 331 331 330 329 329 329 329 328 327 327 326
300 310 313 314 316 307 295 303 304 303 308 313 314 318 319 321 324 326 328 331 333 335 335 336 338 339 340 339 338 337 336 335 334 333 333 332 331 332 332 332 331 331 331 330
293 293 294 297 296 286 297 301 302 304 306 308 311 314 317 320 323 327 329 332 333 335 335 336 338 339 340 340 339 339 338 337 336 335 335 334 334 334 335 334 334 334 334 334
292 291 292 291 290 292 297 300 302 304 306 308 310 313 317 320 324 327 330 332 333 334 335 336 337 339 340 340 340 340 339 338 338 337 337 337 336 337 337 336 337 337 336 337
284 288 296 297 293 291 296 299 302 304 306 308 310 313 317 321 324 327 329 331 333 334 334 335 337 339 340 341 341 341 341 340 339 339 339 339 339 340 339 338 338 339 337 338
287 288 294 298 297 296 298 299 302 304 306 308 311 313 316 320 324 326 329 331 332 333 334 335 336 338 340 341 342 341 341 341 341 340 340 341 342 343 342 341 340 339 339 339
290 290 293 296 298 299 300 301 302 304 306 308 310 313 316 319 323 326 328 330 332 333 333 334 336 337 339 341 342 342 342 342 342 342 342 342 344 345 345 345 344 341 339 339
Height
5866 5867 5866 5867 5870 5870 5870 5870 5868 5866 5866 5868 5868 5867 5865 5864 5862 5861 5860 5860 5859 5858 5857 5856 5854 5852 5850 5848 5845 5842 5840 5837 5833 5831 5827 5825 5822 5819 5816 5813 5811 5809 5807 5805
5868 5866 5864 5866 5869 5871 5871 5871 5869 5867 5867 5867 5865 5863 5860 5858 5858 5858 5857 5856 5855 5854 5852 5850 5848 5846 5844 5841 5838 5835 5832 5829 5825 5821 5818 5815 5813 5810 5806 5803 5801 5799 5797 5795
5865 5867 5866 5867 5869 5869 5869 5868 5867 5866 5865 5864 5862 5859 5856 5855 5855 5854 5853 5852 5851 5849 5848 5845 5843 5840 5837 5834 5831 5827 5824 5820 5816 5812 5809 5805 5802 5799 5796 5793 5790 5788 5786 5784
5866 5865 5866 5867 5866 5866 5866 5866 5865 5864 5862 5859 5858 5854 5851 5851 5851 5851 5850 5849 5847 5845 5842 5840 5837 5834 5830 5827 5823 5819 5816 5812 5807 5803 5799 5795 5791 5788 5785 5782 5779 5777 5775 5773
5866 5866 5865 5866 5865 5865 5864 5863 5863 5861 5858 5855 5850 5847 5843 5845 5846 5846 5846 5845 5843 5840 5837 5834 5831 5827 5824 5819 5815 5811 5807 5802 5798 5793 5789 5785 5781 5777 5774 5770 5767 5765 5763 5761
5864 5866 5866 5865 5865 5865 5864 5863 5862 5859 5855 5852 5847 5844 5842 5843 5844 5844 5843 5841 5839 5836 5833 5829 5825 5821 5817 5812 5807 5802 5798 5793 5788 5783 5779 5774 5770 5766 5763 5759 5756 5754 5751 5749
5862 5863 5864 5865 5865 5864 5863 5863 5861 5856 5850 5848 5847 5843 5842 5844 5844 5842 5841 5838 5835 5832 5829 5824 5820 5815 5810 5805 5800 5794 5789 5784 5779 5774 5769 5764 5760 5756 5752 5749 5746 5743 5740 5737
5862 5863 5864 5864 5864 5863 5862 5861 5860 5857 5854 5849 5846 5842 5843 5844 5844 5842 5839 5836 5833 5829 5824 5820 5814 5809 5804 5798 5792 5787 5781 5776 5770 5765 5760 5754 5750 5746 5742 5738 5734 5731 5729 5726
5865 5865 5865 5863 5862 5861 5861 5860 5859 5857 5856 5853 5847 5845 5845 5844 5843 5840 5837 5834 5830 5825 5820 5815 5809 5803 5797 5791 5785 5779 5773 5767 5762 5756 5751 5745 5740 5736 5732 5728 5724 5721 5718 5715
5866 5866 5865 5864 5862 5860 5860 5858 5857 5856 5855 5854 5852 5847 5845 5843 5841 5838 5835 5831 5827 5822 5816 5810 5804 5798 5792 5785 5778 5772 5765 5759 5753 5747 5741 5736 5730 5726 5721 5717 5713 5709 5706 5703
5865 5865 5865 5864 5862 5860 5859 5857 5855 5854 5853 5853 5852 5848 5844 5841 5839 5835 5832 5827 5823 5817 5812 5806 5799 5793 5786 5778 5771 5764 5757 5750 5744 5737 5731 5725 5720 5714 5709 5705 5701 5697 5693 5690
5864 5864 5863 5862 5859 5858 5858 5856 5854 5854 5852 5851 5851 5848 5842 5838 5835 5832 5828 5823 5818 5813 5807 5800 5794 5787 5779 5771 5764 5756 5748 5741 5734 5727 5721 5714 5709 5703 5698 5693 5689 5684 5680 5675
5863 5862 5861 5859 5857 5856 5856 5854 5853 5852 5851 5850 5849 5846 5839 5835 5832 5828 5824 5819 5813 5808 5801 5795 5787 5780 5772 5763 5755 5747 5739 5732 5724 5717 5711 5704 5698 5692 5687 5681 5676 5671 5665 5661
5861 5860 5860 5860 5857 5856 5856 5854 5852 5850 5849 5847 5845 5842 5837 5832 5829 5824 5819 5814 5808 5802 5795 5788 5780 5772 5764 5755 5747 5739 5730 5722 5715 5707 5701 5694 5687 5681 5675 5669 5663 5657 5651 5645
5859 5859 5857 5857 5856 5855 5854 5852 5850 5847 5845 5843 5841 5837 5832 5828 5824 5819 5814 5808 5802 5796 5789 5781 5773 5765 5756 5747 5738 5730 5721 5713 5705 5698 5690 5683 5677 5670 5663 5656 5649 5642 5635 5629
5857 5856 5855 5854 5853 5852 5851 5849 5847 5844 5841 5839 5836 5833 5827 5824 5819 5814 5809 5803 5797 5790 5783 5775 5766 5757 5748 5739 5730 5721 5713 5704 5696 5688 5681 5673 5666 5659 5651 5644 5636 5629 5621 5613
5855 5854 5853 5851 5851 5850 5849 5846 5843 5841 5838 5835 5832 5829 5823 5819 5814 5810 5805 5798 5792 5785 5777 5768 5759 5749 5740 5731 5722 5713 5704 5696 5687 5680 5672 5664 5656 5648 5640 5632 5624 5616 5607 5599
5854 5852 5850 5848 5848 5847 5847 5842 5840 5837 5834 5831 5827 5822 5818 5814 5808 5804 5800 5793 5786 5778 5769 5760 5751 5742 5733 5723 5714 5705 5696 5687 5679 5671 5663 5655 5647 5639 5630 5621 5613 5604 5595 5587
5850 5849 5848 5846 5844 5844 5842 5838 5836 5833 5829 5827 5823 5819 5814 5810 5803 5797 5793 5786 5778 5770 5762 5754 5745 5735 5726 5717 5707 5698 5689 5680 5672 5663 5655 5647 5638 5630 5621 5612 5603 5594 5585 5577
5848 5846 5845 5842 5841 5839 5838 5834 5832 5829 5824 5822 5817 5813 5809 5805 5800 5794 5787 5780 5773 5765 5756 5747 5739 5729 5720 5710 5701 5691 5682 5673 5665 5656 5648 5639 5630 5621 5612 5603 5594 5585 5577 5568
5844 5842 5840 5838 5837 5836 5831 5830 5828 5825 5821 5816 5811 5808 5804 5799 5795 5789 5782 5775 5767 5759 5750 5741 5732 5723 5714 5704 5695 5685 5676 5667 5658 5649 5641 5632 5623 5614 5605 5596 5587 5578 5569 5561
5842 5840 5838 5836 5834 5833 5826 5824 5822 5819 5815 5811 5807 5803 5799 5794 5789 5783 5776 5769 5761 5753 5744 5736 5727 5718 5708 5699 5689 5680 5670 5661 5652 5643 5635 5626 5616 5607 5598 5589 5580 5571 5563 5555
5838 5836 5833 5832 5831 5826 5822 5819 5815 5812 5809 5806 5802 5798 5794 5789 5783 5777 5770 5763 5755 5747 5739 5730 5722 5713 5703 5693 5684 5674 5665 5656 5647 5638 5629 5620 5611 5601 5592 5583 5575 5566 5558 5550
5833 5829 5827 5825 5824 5820 5816 5813 5810 5806 5803 5800 5796 5792 5788 5783 5777 5771 5764 5757 5749 5741 5733 5725 5717 5708 5698 5689 5679 5669 5660 5651 5642 5633 5624 5615 5606 5597 5587 5578 5570 5562 5554 5547
5827 5824 5821 5819 5816 5813 5811 5807 5804 5801 5797 5794 5790 5786 5782 5777 5771 5765 5758 5751 5744 5736 5728 5720 5711 5703 5694 5684 5674 5664 5655 5646 5637 5629 5620 5611 5602 5593 5584 5575 5566 5558 5551 5544
5820 5818 5816 5813 5810 5807 5804 5801 5798 5795 5792 5788 5785 5780 5775 5770 5765 5759 5752 5745 5738 5730 5723 5715 5706 5698 5689 5679 5670 5660 5651 5642 5634 5625 5617 5608 5599 5590 5581 5572 5563 5555 5548 5541